This demonstration page uses our WeatherBlox Daily Observations layout. Learn more.

Left ArrowRight Arrow

39.92423, -83.80882

Hourly Observations for December 1, 2022

Temp ( °F °C ) Dew Point ( °F °C ) Humidity (%) Winds ( mph kmh ) Pressure ( in mb ) Visibility ( mi km ) Precip ( " mm )
12:56 am 00:56 Clear 25 -3.9 17 -8.3 71 71 W 15 24 30.34 1027 10 16 0.00 0.00
1:56 am 01:56 Clear 24 -4.4 17 -8.3 74 74 W 15 24 30.36 1028 10 16 0.00 0.00
2:56 am 02:56 Clear 23 -5 16 -8.9 74 74 W 14 22 30.40 1029 10 16 0.00 0.00
3:56 am 03:56 Clear 22 -5.6 16 -8.9 77 77 W 12 19 30.43 1030 10 16 0.00 0.00
4:56 am 04:56 Clear 21 -6.1 15 -9.4 77 77 W 9 15 30.46 1031 10 16 0.00 0.00
5:56 am 05:56 Clear 19 -7.2 14 -10 80 80 W 7 11 30.48 1032 10 16 0.00 0.00
6:56 am 06:56 Clear 19 -7.2 15 -9.4 84 84 W 8 13 30.52 1033 10 16 0.00 0.00
7:56 am 07:56 Sunny 18 -7.8 15 -9.4 88 88 W 7 11 30.55 1034 10 16 0.00 0.00
8:56 am 08:56 Sunny 23 -5 17 -8.3 78 78 WNW 10 17 30.55 1035 10 16 0.00 0.00
9:56 am 09:56 Sunny 25 -3.9 17 -8.3 71 71 WNW 9 15 30.58 1035 10 16 0.00 0.00
10:56 am 10:56 Sunny 28 -2.2 17 -8.3 63 63 VRB 3 6 30.59 1036 10 16 0.00 0.00
11:56 am 11:56 Sunny 30 -1.1 17 -8.3 58 58 WSW 6 9 30.57 1035 10 16 0.00 0.00
12:56 pm 12:56 Sunny 34 1.1 15 -9.4 45 45 WSW 5 7 30.54 1034 10 16 0.00 0.00
1:56 pm 13:56 Sunny 35 1.7 15 -9.4 43 43 W 6 9 30.53 1034 10 16 0.00 0.00
2:56 pm 14:56 Sunny 36 2.2 15 -9.4 42 42 WNW 3 6 30.50 1033 10 16 0.00 0.00
3:56 pm 15:56 Sunny 33 0.6 16 -8.9 49 49 S 5 7 30.50 1033 10 16 0.00 0.00
4:56 pm 16:56 Sunny 34 1.1 17 -8.3 49 49 S 5 7 30.49 1033 10 16 0.00 0.00
5:56 pm 17:56 Clear 31 -0.6 18 -7.8 58 58 S 3 6 30.50 1033 10 16 0.00 0.00
6:56 pm 18:56 Clear 29 -1.7 18 -7.8 63 63 SSE 5 7 30.50 1033 10 16 0.00 0.00
8:56 pm 20:56 Clear 27 -2.8 19 -7.2 72 72 SSE 6 9 30.47 1032 10 16 0.00 0.00
9:56 pm 21:56 Clear 24 -4.4 18 -7.8 77 77 ESE 3 6 30.45 1031 10 16 0.00 0.00
10:56 pm 22:56 Partly Cloudy 25 -3.9 19 -7.2 78 78 SE 7 11 30.44 1031 10 16 0.00 0.00
11:56 pm 23:56 Clear 27 -2.8 19 -7.2 72 72 SSE 8 13 30.40 1030 10 16 0.00 0.00

Powered by AerisWeather